Location: Mountain Grove
(34.0887°N, 86.6172°W)
Time: 21:47:16
(UTC+00:00)

Cosmos 2360 Rocket - Pass Details

Date: 14 July 2020
Orbit: 832 x 846 km, 71.0° (Epoch: 08 August)

Event Time Altitude Azimuth Distance (km) Brightness Sun altitude
Rises 10:07:37 0° 345° (NNW) 3,412 5.6 -7.7°
Reaches altitude 10° 10:10:10 10° 351° (N) 2,473 5.0 -7.3°
Maximum altitude 10:15:40 49° 66° (ENE) 1,079 3.4 -6.3°
Drops below altitude 10° 10:21:07 10° 140° (SE) 2,456 4.8 -5.3°
Sets 10:23:37 0° 146° (SE) 3,386 5.4 -4.9°
